Location: Grantsboro
(35.1404°N, 76.8424°W)
Time: 13:27:37
(UTC+00:00)

Cosmos 2219 - Pass Details

Date: 18 January 2020
Orbit: 833 x 861 km, 71.1° (Epoch: 27 February)

Event Time Altitude Azimuth Distance (km) Brightness Sun altitude
Rises 00:05:19 0° 210° (SSW) 3,362 6.9 -21.2°
Reaches altitude 10° 00:07:47 10° 214° (SW) 2,432 6.2 -21.7°
Maximum altitude 00:13:16 58° 294° (WNW) 964 3.7 -22.8°
Enters shadow 00:17:35 17° 9° (N) 2,010 5.0 -23.7°
